EHI
1 2 3 2 2 2 2 2 1 1 0 0 0 0 0 0 0 0 0 0 0 0 0 0 0 0 0 0 0 0 0 0 0 0 0 0 0 0 0 0 0 0 0
1 3 4 5 5 5 5 4 3 2 1 0 0 0 0 0 0 0 0 0 0 0 0 0 0 0 0 0 0 0 0 0 0 0 0 0 0 0 0 0 0 0 0
2 4 6 8 8 8 7 6 5 3 1 0 0 0 0 0 0 0 0 0 0 0 0 0 0 0 0 0 0 0 0 0 0 0 0 0 0 0 0 0 0 0 0
4 5 7 8 8 8 7 6 5 4 2 1 0 0 0 0 0 0 0 0 0 0 0 0 0 0 0 0 0 0 0 0 0 0 0 0 0 0 0 0 0 0 0
4 6 6 7 7 6 5 4 4 3 2 1 0 0 0 0 0 0 0 0 0 0 0 0 0 0 0 0 0 0 0 0 0 0 0 0 0 0 0 0 0 0 0
3 4 6 6 6 5 3 2 2 1 1 0 0 0 0 0 0 0 0 0 0 0 0 0 0 0 0 0 0 0 0 0 0 0 0 0 0 0 0 0 0 0 0
1 2 3 4 5 4 2 0 0 0 0 0 0 0 0 0 0 0 0 0 0 0 0 0 0 0 0 0 0 0 0 0 0 0 0 0 0 0 0 0 0 0 0
0 0 1 1 2 2 1 0 0 0 0 0 0 0 0 0 0 0 0 0 0 0 0 0 0 0 0 0 0 0 0 0 0 0 0 0 0 0 0 0 0 0 0
0 0 0 0 0 0 0 0 0 0 0 0 0 0 0 0 0 0 0 0 0 0 0 0 0 0 0 0 0 0 0 0 0 0 0 0 0 0 0 0 0 0 0
0 0 0 0 0 0 0 0 0 0 0 0 0 0 0 0 0 0 0 0 0 0 0 0 0 0 0 0 0 0 0 0 0 0 0 0 0 0 0 0 0 0 0
0 0 0 0 0 0 0 0 0 0 0 0 0 0 0 0 0 0 0 0 0 0 0 0 0 0 0 0 0 0 0 0 0 0 0 0 0 0 0 0 0 0 0
0 0 0 0 0 0 0 0 0 0 0 0 0 0 0 0 0 0 0 0 0 0 0 0 0 0 0 0 0 0 0 0 0 0 0 0 0 0 0 0 0 0 0
0 0 0 0 0 0 0 0 0 0 0 0 0 0 0 0 0 0 0 0 0 0 0 0 0 0 0 0 0 0 0 0 0 0 0 0 0 0 0 0 0 0 0
0 0 0 0 0 0 0 0 0 0 0 0 0 0 0 0 0 0 0 0 0 0 0 0 0 0 0 0 0 0 0 0 0 0 0 0 0 0 0 0 0 0 0
0 0 0 0 0 0 0 0 0 0 0 0 0 0 0 0 0 0 0 0 0 0 0 0 0 0 0 0 0 0 0 0 0 0 0 0 0 0 0 0 0 0 0
0 0 0 0 0 0 0 0 0 0 0 0 0 0 0 0 0 0 0 0 0 0 0 0 0 0 0 0 0 0 0 0 0 0 0 0 0 0 0 0 0 0 0
0 0 0 0 0 0 0 0 0 0 0 0 0 0 0 0 0 0 0 0 0 0 0 0 0 0 0 0 0 0 0 0 0 0 0 0 0 0 0 0 0 0 0
0 0 0 0 0 0 0 0 0 0 0 0 0 0 0 0 0 0 0 0 0 0 0 0 0 0 0 0 0 0 0 0 0 0 0 0 0 0 0 0 0 0 0
0 0 0 0 0 0 0 0 0 0 0 0 0 0 0 0 0 0 0 0 0 0 0 0 0 0 0 0 0 0 0 0 0 0 0 0 0 0 0 0 0 0 0
0 0 0 0 0 0 0 0 0 0 0 0 0 0 0 0 0 0 0 0 0 0 0 0 0 0 0 0 0 0 0 0 0 0 0 0 0 0 0 0 0 0 0
0 0 0 0 0 0 0 0 0 0 0 0 0 0 0 0 0 0 0 0 0 0 0 0 0 0 0 0 0 0 0 0 0 0 0 0 0 0 0 0 0 0 0
0 0 0 0 0 0 0 0 0 0 0 0 0 0 0 0 0 0 0 0 0 0 0 0 0 0 0 0 0 0 0 0 0 0 0 0 0 0 0 0 0 0 0
0 0 0 0 0 0 0 0 0 0 0 0 0 0 0 0 0 0 0 0 0 0 0 0 0 0 0 0 0 0 0 0 0 0 0 0 0 0 0 0 0 0 0
0 0 0 0 0 0 0 0 0 0 0 0 0 0 0 0 0 0 0 0 0 0 0 0 0 0 0 0 0 0 0 0 0 0 0 0 0 0 0 0 0 0 0
0 0 0 0 0 0 0 0 0 0 0 0 0 0 0 0 0 0 0 0 0 0 0 0 0 0 0 0 0 0 0 0 0 0 0 0 0 0 0 0 0 0 0
0 0 0 0 0 0 0 0 0 0 0 0 0 0 0 0 0 0 0 0 0 0 0 0 0 0 0 0 0 0 0 0 0 0 0 0 0 0 0 0 0 0 0
Wind_Speed
7 6 6 5 5 4 4 4 4 3 3 3 3 3 3 3 3 3 3 4 4 4 4 4 5 4 3 3 3 3 3 3 4 4 3 3 4 5 5 4 4 4 5
7 7 7 6 5 5 4 4 4 4 4 4 4 4 4 4 4 4 5 4 4 5 5 5 5 4 4 4 3 4 4 4 4 5 4 3 4 5 5 5 4 4 4
7 7 6 6 6 6 6 5 5 5 5 4 4 5 5 5 5 5 5 5 5 6 6 6 6 5 5 4 4 4 4 4 4 4 4 3 3 3 3 4 4 4 4
7 7 7 7 7 7 6 6 6 5 5 5 5 6 6 6 5 5 5 5 5 6 5 5 6 6 6 6 5 5 5 4 4 3 4 3 3 4 2 3 4 3 3
7 7 8 7 7 6 6 6 6 5 6 6 5 5 5 5 6 6 5 6 6 6 5 5 6 8 10 8 6 5 5 4 4 4 4 3 3 3 3 3 3 3 4
8 8 7 6 6 6 6 6 5 5 5 5 5 5 6 5 7 9 7 5 5 6 6 6 7 8 10 11 12 11 9 7 6 5 4 5 6 5 3 3 2 2 3
7 7 6 6 6 6 6 5 6 5 5 5 6 6 6 8 11 11 11 7 6 6 7 6 6 7 8 6 8 11 10 12 13 8 7 8 7 6 5 4 4 4 5
7 6 6 6 6 6 5 5 5 4 5 5 6 6 6 8 11 12 13 8 6 7 8 8 8 8 8 8 7 7 7 8 9 8 8 9 9 7 6 6 6 5 4
7 6 6 6 6 5 6 6 5 4 5 5 5 6 7 9 12 13 11 5 6 8 8 8 8 8 11 12 8 8 8 8 10 13 12 12 13 12 8 3 3 3 4
8 7 7 6 6 6 6 6 4 4 6 6 6 7 7 8 11 13 11 5 6 7 6 7 10 10 11 10 6 7 8 9 7 6 6 8 8 9 11 8 6 5 4
6 6 5 6 6 6 5 4 4 5 5 6 7 7 7 9 11 13 12 6 7 6 6 6 6 10 11 11 8 7 11 9 5 6 5 5 5 5 6 6 7 7 6
5 5 5 5 5 4 4 4 4 5 5 6 6 7 6 7 9 11 13 12 10 7 7 6 7 10 11 11 8 9 12 9 4 4 5 6 5 6 6 6 8 8 8
4 4 4 4 4 4 4 5 4 4 4 5 5 6 7 6 6 12 13 13 13 8 7 10 10 11 10 8 11 13 9 5 5 6 7 7 6 6 5 4 5 6 7
3 3 3 3 4 4 4 4 4 5 5 5 6 6 7 5 5 5 5 5 8 8 7 7 10 11 9 10 9 8 6 6 7 7 6 6 5 4 5 4 4 4 4
1 2 3 3 4 4 5 5 6 7 7 7 7 6 6 7 9 10 7 5 5 5 3 2 3 3 4 5 5 6 5 5 7 7 7 6 5 5 5 5 4 4 5
1 3 3 3 4 4 5 6 9 11 13 14 14 11 8 12 13 12 13 12 10 7 4 4 5 5 6 6 6 6 6 7 7 7 7 7 7 6 6 5 4 5 6
2 3 3 3 4 4 4 5 7 8 10 12 14 14 15 14 14 13 12 10 8 8 5 6 6 7 7 7 6 7 7 7 6 7 7 7 7 6 6 5 5 5 6
3 4 4 4 4 5 5 6 6 6 7 6 8 12 13 14 14 13 9 5 4 5 6 7 8 7 7 7 7 7 7 6 5 6 7 7 7 6 6 6 6 6 6
3 3 4 4 5 5 5 5 6 7 6 6 6 7 10 10 11 10 7 6 7 7 7 8 8 7 7 7 7 7 6 6 6 6 6 7 6 6 6 6 6 8 7
3 7 6 4 5 5 5 5 5 6 6 6 6 6 5 3 4 4 6 6 7 7 7 7 7 7 7 6 6 6 6 6 6 6 6 6 6 6 7 7 6 6 6
4 5 9 6 5 5 5 6 6 6 6 6 6 7 8 5 6 6 6 6 7 8 7 7 6 6 6 5 5 6 6 6 5 5 5 5 6 6 6 6 6 6 5
4 4 5 5 6 6 6 6 6 6 7 7 6 7 10 7 5 5 5 6 7 7 6 6 6 6 6 5 5 5 5 6 5 5 5 5 5 5 5 5 5 5 5
4 5 5 5 5 7 7 5 6 6 6 6 6 7 6 5 5 6 6 6 5 5 5 5 5 5 5 5 5 5 6 6 5 5 5 5 5 5 5 5 6 6 6
4 5 5 6 5 5 5 6 6 6 6 6 6 6 5 5 5 6 6 5 4 4 4 4 5 6 7 5 4 4 4 5 4 4 6 6 5 5 4 5 5 6 6
4 5 5 5 5 5 5 6 6 6 6 6 5 5 5 5 5 5 4 4 4 4 5 4 4 4 5 5 4 3 4 4 4 3 3 4 5 5 5 5 4 4 5
4 5 4 4 5 5 6 6 6 6 6 6 5 5 5 5 4 4 3 3 3 3 4 3 4 4 4 4 3 3 2 2 2 2 2 2 4 4 4 4 5 4 4
Wind_Direction
175 172 166 174 174 170 177 194 197 198 200 205 218 231 248 256 255 243 249 253 250 261 265 256 257 254 254 257 248 238 227 202 239 267 259 271 277 283 291 283 271 261 261
178 172 175 178 176 181 196 204 198 203 213 217 222 230 243 247 245 240 252 255 245 250 255 255 258 259 254 252 247 245 242 225 222 258 273 273 267 269 270 276 273 265 254
172 171 176 184 188 197 207 211 209 211 219 225 223 229 238 242 241 240 240 247 245 245 245 244 251 253 257 255 250 248 248 251 225 233 259 262 270 275 284 283 277 269 260
170 173 184 195 199 205 210 213 216 215 219 227 230 233 237 238 239 243 242 244 247 250 248 245 246 241 245 250 253 248 246 251 245 240 251 261 266 275 270 276 292 284 274
171 183 199 203 202 204 210 216 219 220 224 226 231 240 242 240 239 235 236 240 240 248 254 252 251 251 249 246 250 242 238 237 238 239 249 258 264 271 261 254 265 286 283
179 193 198 196 200 206 213 217 220 226 231 228 231 238 244 244 245 241 228 231 233 239 250 256 261 263 262 262 262 255 236 229 229 229 236 237 247 244 245 244 249 275 285
185 192 195 195 202 212 215 214 220 225 226 230 237 239 244 250 253 251 244 230 231 236 239 247 260 262 262 260 267 271 262 249 232 220 226 234 237 233 230 245 239 232 239
186 193 196 197 208 214 213 219 225 223 225 233 239 241 245 253 254 252 249 237 232 237 237 237 243 257 261 254 257 263 259 256 245 231 225 233 235 231 221 229 235 243 255
193 199 199 198 204 208 216 227 228 226 235 237 239 241 245 256 257 255 248 229 236 244 244 242 239 247 257 257 251 255 262 265 260 246 234 237 240 240 227 220 228 228 255
202 202 200 195 198 207 218 226 228 226 238 243 248 245 242 251 258 256 245 220 237 249 252 249 245 247 255 256 239 240 253 259 260 265 255 254 251 251 240 218 212 216 226
199 194 196 199 205 212 219 225 231 237 247 249 254 257 251 250 258 258 248 216 226 240 247 250 245 246 249 251 243 230 241 249 250 246 250 254 254 248 242 226 213 210 212
180 188 200 207 215 216 219 235 237 237 248 257 260 269 264 258 253 256 250 232 223 225 240 245 245 247 250 254 251 243 249 254 246 244 248 249 247 247 243 232 224 221 220
177 198 213 217 224 224 222 237 245 241 243 255 254 261 269 265 260 254 252 243 233 226 239 245 250 253 256 258 253 252 251 238 228 237 243 245 239 239 241 241 240 230 231
183 213 220 225 243 248 243 240 241 243 245 249 250 255 261 263 258 253 245 242 241 236 244 255 259 258 254 253 259 258 238 224 222 233 240 244 240 235 236 229 233 225 227
199 245 255 252 255 259 257 248 244 242 237 236 241 239 244 255 253 235 223 226 221 222 222 247 252 254 253 253 252 249 241 231 230 234 237 241 238 236 239 227 221 215 217
233 255 254 255 259 259 265 279 265 256 262 255 248 244 244 245 257 252 238 234 229 210 192 234 246 246 248 251 253 255 244 235 232 231 231 231 232 232 236 229 216 214 222
277 276 274 272 271 271 267 267 281 287 277 271 264 256 247 253 258 254 245 237 226 190 207 239 246 248 248 247 247 248 249 241 230 227 230 230 228 228 226 225 221 220 224
316 295 288 277 276 275 272 268 265 270 282 285 276 264 260 257 256 251 239 202 219 207 226 239 245 246 245 245 246 247 247 244 233 229 229 228 224 223 224 225 221 219 221
319 303 294 285 281 278 276 273 271 268 266 271 280 281 269 263 258 247 201 199 224 231 230 237 242 244 243 242 245 245 242 239 234 227 226 225 220 217 223 224 222 223 217
310 307 308 296 289 289 284 280 278 274 272 270 268 267 271 260 252 236 208 217 231 240 240 240 242 241 241 241 243 245 243 239 235 230 229 225 219 214 220 223 219 213 212
303 305 310 309 296 289 286 284 281 277 275 273 268 265 262 252 248 245 235 227 229 235 239 241 241 242 241 239 238 240 240 242 235 230 228 225 217 215 216 215 214 211 207
293 293 296 294 293 293 292 287 286 282 279 277 276 278 273 257 247 245 243 243 234 230 230 232 239 239 236 235 235 235 238 240 236 230 227 223 219 217 216 212 209 206 204
293 296 296 292 291 296 297 293 291 286 284 283 282 280 275 261 252 249 247 243 238 236 232 227 236 245 242 239 237 231 232 235 232 223 219 220 219 215 210 210 209 206 207
292 294 295 295 297 296 297 299 297 293 290 287 286 285 281 272 264 260 256 250 243 242 238 233 237 245 248 247 244 237 236 237 230 224 218 218 217 213 207 212 215 212 208
290 292 295 296 299 299 300 304 302 298 295 291 291 293 294 286 273 270 268 260 255 252 253 247 241 245 249 247 247 247 240 239 239 232 225 218 216 210 203 207 211 212 205
289 293 295 297 300 301 302 301 299 297 294 295 294 293 296 294 286 278 275 278 276 267 262 254 239 237 243 245 248 244 240 250 254 248 235 219 212 208 200 204 210 211 201